Change the Weather History Date:

Friday, January 2, 2015

  Actual Average Record
Temperature  
Mean Temperature 18 °F -  
Max Temperature 21 °F 18 °F 42 °F (1981)
Min Temperature 15 °F 0 °F -39 °F (1975)
Degree Days  
Heating Degree Days 47    
Moisture  
Dew Point 15 °F    
Average Humidity 85    
Maximum Humidity 93    
Minimum Humidity 68    
Precipitation  
Precipitation 0.00 in - - ()
Sea Level Pressure  
Sea Level Pressure 30.17 in    
Wind  
Wind Speed 1 mph (ENE)    
Max Wind Speed 7 mph    
Max Gust Speed -    
Visibility 10 miles    
Events      
Averages and records for this station are not official NWS values.
T = Trace of Precipitation, MM = Missing Value Source: NWS Daily Summary

Daily Weather History Graph

Daily Weather History Graph

Search for Another Location

Airport or City:

Trip Planner

Search our weather history database for the weather conditions in past years. The results will help you decide how hot, cold, wet, or windy it might be!

Date:

Astronomy

Jan. 02, 2015 Rise Set
Actual Time 10:10 AM AKST 4:06 PM AKST
Civil Twilight 9:12 AM AKST 5:04 PM AKST
Nautical Twilight 8:15 AM AKST 6:01 PM AKST
Astronomical Twilight 7:23 AM AKST 6:53 PM AKST
Moon 2:56 PM AKST (1/2) 7:23 AM AKST (1/2)
Length of Visible Light 7h 52m
Length of Day
5h 56m
Waxing Gibbous, 95% of the Moon is Illuminated
Jan 2
Waxing Gibbous
Jan 4
Full
Jan 13
Last Quarter
Jan 20
New
Jan 26
First Quarter

Hourly Weather History & Observations

Time (AKST) Temp. Windchill Dew Point Humidity Pressure Visibility Wind Dir Wind Speed Gust Speed Precip Events Conditions
12:16 AM 21.2 °F - 17.6 °F 86% 30.04 in 10.0 mi Calm Calm - N/A   Clear
12:36 AM 21.2 °F - 17.6 °F 86% 30.05 in 10.0 mi Calm Calm - N/A   Clear
12:56 AM 21.2 °F - 17.6 °F 86% 30.05 in 10.0 mi Calm Calm - N/A   Clear
1:16 AM 19.4 °F - 17.6 °F 93% 30.06 in 10.0 mi Calm Calm - N/A   Clear
1:36 AM 19.4 °F - 17.6 °F 93% 30.06 in 10.0 mi Calm Calm - N/A   Clear
1:56 AM 19.4 °F - 17.6 °F 93% 30.06 in 10.0 mi Calm Calm - N/A   Clear
2:16 AM 17.6 °F 12.3 °F 15.8 °F 93% 30.06 in 10.0 mi ESE 3.5 mph - N/A   Clear
2:36 AM 17.6 °F - 15.8 °F 93% 30.07 in 10.0 mi Calm Calm - N/A   Clear
2:56 AM 17.6 °F - 15.8 °F 93% 30.07 in 10.0 mi Calm Calm - N/A   Clear
3:16 AM 19.4 °F - 15.8 °F 86% 30.07 in 10.0 mi Calm Calm - N/A   Clear
3:36 AM 19.4 °F - 15.8 °F 86% 30.08 in 10.0 mi Calm Calm - N/A   Clear
3:56 AM 19.4 °F - 15.8 °F 86% 30.08 in 10.0 mi Calm Calm - N/A   Clear
4:16 AM 17.6 °F - 15.8 °F 93% 30.09 in 10.0 mi Calm Calm - N/A   Clear
4:36 AM 17.6 °F 12.3 °F 12.2 °F 79% 30.10 in 10.0 mi East 3.5 mph - N/A   Clear
4:56 AM 17.6 °F - 15.8 °F 93% 30.10 in 10.0 mi Calm Calm - N/A   Clear
5:16 AM 17.6 °F - 12.2 °F 79% 30.10 in 10.0 mi Calm Calm - N/A   Clear
5:36 AM 15.8 °F - 12.2 °F 86% 30.09 in 10.0 mi Calm Calm - N/A   Clear
5:56 AM 15.8 °F - 12.2 °F 86% 30.10 in 10.0 mi Calm Calm - N/A   Clear
6:16 AM 15.8 °F - 10.4 °F 79% 30.10 in 10.0 mi Calm Calm - N/A   Clear
11:36 AM 15.8 °F - 12.2 °F 86% 30.17 in 10.0 mi Calm Calm - N/A   Clear
11:56 AM 15.8 °F 10.2 °F 12.2 °F 86% 30.17 in 10.0 mi East 3.5 mph - N/A   Clear
12:16 PM 17.6 °F 10.7 °F 15.8 °F 93% 30.17 in 10.0 mi East 4.6 mph - N/A   Clear
12:36 PM 17.6 °F 12.3 °F 14.0 °F 86% 30.17 in 10.0 mi ENE 3.5 mph - N/A   Clear
12:56 PM 19.4 °F 14.3 °F 15.8 °F 86% 30.17 in 10.0 mi East 3.5 mph - N/A   Clear
1:16 PM 17.6 °F 10.7 °F 12.2 °F 79% 30.16 in 10.0 mi East 4.6 mph - N/A   Clear
1:36 PM 19.4 °F 12.8 °F 14.0 °F 80% 30.16 in 10.0 mi East 4.6 mph - N/A   Clear
2:16 PM 19.4 °F 12.8 °F 15.8 °F 86% 30.17 in 10.0 mi East 4.6 mph - N/A   Clear
2:36 PM 19.4 °F - 15.8 °F 86% 30.17 in 10.0 mi Calm Calm - N/A   Clear
2:56 PM 17.6 °F - 14.0 °F 86% 30.18 in 10.0 mi Calm Calm - N/A   Clear
3:36 PM 17.6 °F 10.7 °F 12.2 °F 79% 30.18 in 10.0 mi East 4.6 mph - N/A   Clear
3:56 PM 19.4 °F - 15.8 °F 86% 30.19 in 10.0 mi Calm Calm - N/A   Clear
4:16 PM 17.6 °F - 14.0 °F 86% 30.19 in 10.0 mi Calm Calm - N/A   Clear
4:36 PM 17.6 °F - 12.2 °F 79% 30.19 in 10.0 mi Calm Calm - N/A   Clear
4:56 PM 17.6 °F - 12.2 °F 79% 30.20 in 10.0 mi Calm Calm - N/A   Clear
5:16 PM 17.6 °F - 12.2 °F 79% 30.20 in 10.0 mi Calm Calm - N/A   Clear
5:36 PM 15.8 °F 10.2 °F 12.2 °F 86% 30.20 in 10.0 mi East 3.5 mph - N/A   Clear
5:56 PM 17.6 °F - 15.8 °F 93% 30.20 in 10.0 mi Calm Calm - N/A   Clear
6:16 PM 17.6 °F 12.3 °F 15.8 °F 93% 30.21 in 10.0 mi ENE 3.5 mph - N/A   Clear
6:36 PM 17.6 °F - 14.0 °F 86% 30.21 in 10.0 mi Calm Calm - N/A   Clear
6:56 PM 17.6 °F - 15.8 °F 93% 30.21 in 10.0 mi Calm Calm - N/A   Clear
7:16 PM 17.6 °F - 12.2 °F 79% 30.22 in 10.0 mi Calm Calm - N/A   Clear
7:36 PM 17.6 °F - 12.2 °F 79% 30.22 in 10.0 mi Calm Calm - N/A   Clear
7:56 PM 19.4 °F 14.3 °F 15.8 °F 86% 30.23 in 10.0 mi WSW 3.5 mph - N/A   Clear
8:16 PM 21.2 °F - 15.8 °F 80% 30.23 in 10.0 mi Calm Calm - N/A   Clear
8:36 PM 21.2 °F - 15.8 °F 80% 30.24 in 10.0 mi Calm Calm - N/A   Scattered Clouds
8:56 PM 21.2 °F - 15.8 °F 80% 30.24 in 10.0 mi Calm Calm - N/A   Partly Cloudy
9:16 PM 21.2 °F 16.4 °F 15.8 °F 80% 30.25 in 10.0 mi ENE 3.5 mph - N/A   Scattered Clouds
9:36 PM 21.2 °F - 15.8 °F 80% 30.26 in 10.0 mi Calm Calm - N/A   Partly Cloudy
9:56 PM 21.2 °F - 15.8 °F 80% 30.27 in 10.0 mi Calm Calm - N/A   Partly Cloudy
10:16 PM 21.2 °F 14.9 °F 15.8 °F 80% 30.28 in 10.0 mi NE 4.6 mph - N/A   Clear
10:36 PM 21.2 °F 13.6 °F 15.8 °F 80% 30.28 in 10.0 mi ENE 5.8 mph - N/A   Clear
10:56 PM 21.2 °F 12.6 °F 15.8 °F 80% 30.29 in 10.0 mi ENE 6.9 mph - N/A   Clear
11:16 PM 21.2 °F 13.6 °F 15.8 °F 80% 30.29 in 10.0 mi ENE 5.8 mph - N/A   Clear
11:36 PM 21.2 °F 14.9 °F 14.0 °F 74% 30.30 in 10.0 mi ENE 4.6 mph - N/A   Clear
11:56 PM 21.2 °F 12.6 °F 12.2 °F 68% 30.31 in 10.0 mi ENE 6.9 mph - N/A   Partly Cloudy